Home > Weather > Bad Homburg > Past weeks

Flag for Germany Past Weather in Bad Homburg, Hesse, Germany — Yesterday and Last 2 Weeks

Now
63 °F

Light rain. Partly cloudy.


Feels Like: 63 °F
Forecast: 55 / 71 °F
Wind: 3 mph from West

Location: Frankfurt-M-Flughafen Airport

Current Time: Jun 29, 2016 at 3:55:28 AM

Latest Report: Jun 29, 2016 at 3:20 AM


Visibility: N/A

Pressure: 29.92 "Hg

Humidity: 94%

Dew Point: 61 °F

Location of Bad HomburgLocation

Past Weather in Bad Homburg — Graph

°F

Bad Homburg Temperature Yesterday

Maximum temperature yesterday: 72 °F (at 3:20 PM)
Minimum temperature yesterday: 59 °F (at 2:20 AM)
Average temperature yesterday: 65 °F

High & Low Weather Summary for the Past Weeks

 TemperatureHumidityPressure
High93 °F (Jun 23, 4:50 PM)100% (Jun 14, 8:50 PM)30.27 "Hg (Jun 14, 8:50 PM)
Low45 °F (Jun 20, 4:50 AM)30% (Jun 23, 4:50 PM)29.50 "Hg (Jun 14, 2:20 PM)
Average64 °F78%29.97 "Hg
* Reported Jun 14 2:20 AM — Jun 29 2:20 AM, Bad Homburg, Weather by CustomWeather, © 2016

Note: Actual official high and low records may vary slightly from our data, if they occured in-between our weather recording intervals... More about our weather records

Advertising

Bad Homburg Weather History for the Previous 24 Hours

Scroll right to see more
 ConditionsComfort  
Time TempWeatherWind HumidityBarometerVisibility
2:20 AM
Wed, Jun 29
63 °FPassing clouds.3 mph94%29.92 "HgN/A
1:50 AM63 °FPassing clouds.6 mph94%29.92 "HgN/A
1:20 AM63 °FPartly cloudy.6 mph88%29.92 "HgN/A
12:50 AM64 °FPartly cloudy.6 mph83%29.95 "HgN/A
12:20 AM64 °FPartly cloudy.5 mph83%29.95 "HgN/A
11:50 PM
Tue, Jun 28
64 °FPartly cloudy.5 mph88%29.95 "HgN/A
11:20 PM64 °FPartly cloudy.8 mph88%29.95 "HgN/A
10:50 PM64 °FScattered showers. Partly cloudy.7 mph88%29.95 "HgN/A
10:20 PM66 °FPartly sunny.6 mph83%29.95 "HgN/A
9:50 PM66 °FPartly sunny.9 mph83%29.95 "HgN/A
9:20 PM68 °FPartly sunny.7 mph73%29.95 "HgN/A
8:50 PM68 °FPartly sunny.6 mph73%29.95 "HgN/A
8:20 PM70 °FPartly sunny.7 mph69%29.95 "HgN/A
7:50 PM70 °FPartly sunny.7 mph69%29.98 "HgN/A
7:20 PM72 °FBroken clouds.7 mph65%29.98 "HgN/A
6:50 PM72 °FBroken clouds.7 mph65%29.98 "HgN/A
6:20 PM70 °FScattered clouds.9 mph69%29.98 "HgN/A
5:50 PM72 °FScattered clouds.9 mph61%29.98 "HgN/A
5:20 PM72 °FBroken clouds.8 mph61%30.01 "HgN/A
4:50 PM72 °FBroken clouds.7 mph61%30.01 "HgN/A
4:20 PM72 °FBroken clouds.5 mph61%30.01 "HgN/A
3:50 PM70 °FBroken clouds.5 mph64%30.04 "HgN/A
3:20 PM72 °FBroken clouds.5 mph57%30.01 "HgN/A
2:50 PM70 °FBroken clouds.5 mph60%30.04 "HgN/A
2:20 PM70 °FBroken clouds.5 mph60%30.04 "HgN/A
1:50 PM68 °FBroken clouds.5 mph64%30.04 "HgN/A
1:20 PM70 °FBroken clouds.5 mph69%30.07 "HgN/A
12:50 PM70 °FPartly sunny.3 mph64%30.07 "HgN/A
12:20 PM68 °FBroken clouds.3 mph69%30.07 "HgN/A
11:50 AM66 °FBroken clouds.6 mph73%30.09 "HgN/A
11:20 AM64 °FPartly sunny.5 mph73%30.09 "HgN/A
10:50 AM64 °FScattered clouds.2 mph78%30.09 "HgN/A
10:20 AM64 °FPartly sunny.2 mph83%30.09 "HgN/A
9:50 AM63 °FLight rain. Broken clouds.3 mph88%30.09 "HgN/A
9:20 AM63 °FDrizzle. Broken clouds.5 mph88%30.09 "Hg6 mi
8:50 AM63 °FLight rain. Broken clouds.3 mph88%30.09 "HgN/A
8:20 AM61 °FLight rain. Partly sunny.2 mph94%30.09 "HgN/A
7:50 AM61 °FLight rain. Partly sunny.3 mph94%30.09 "HgN/A
7:20 AM61 °FPartly sunny.3 mph94%30.09 "HgN/A
6:50 AM61 °FPartly sunny.5 mph94%30.09 "HgN/A
6:20 AM59 °FPartly sunny.3 mph100%30.09 "HgN/A
5:50 AM59 °FPassing clouds.2 mph100%30.09 "HgN/A
5:20 AM59 °FPartly cloudy.2 mph94%30.09 "HgN/A
4:50 AM59 °FFog.2 mph94%30.09 "HgN/A
4:20 AM59 °FPartly cloudy.3 mph100%30.09 "HgN/A
3:50 AM59 °FPartly cloudy.5 mph94%30.09 "HgN/A
3:20 AM59 °FPartly cloudy.3 mph94%30.09 "HgN/A
Weather by CustomWeather, © 2016

See weather overviewHow to use our weather pages